Time,TemperatureF,DewpointF,PressureIn,WindDirection,WindDirectionDegrees,WindSpeedMPH,WindSpeedGustMPH,Humidity,HourlyPrecipIn,Conditions,Clouds,dailyrainin,SoftwareType,DateUTC
2017-03-26 00:01:00,53.8,53.2,29.74,SSW,201,0.0,0.0,98,0.01,,---,1.57,VWS V14.01,2017-03-26 05:01:00,
2017-03-26 00:06:00,53.6,53.0,29.74,SSW,202,0.0,0.0,98,0.01,,---,0.00,VWS V14.01,2017-03-26 05:06:00,
2017-03-26 00:11:00,53.5,53.0,29.74,West,262,0.0,0.0,98,0.01,,---,0.00,VWS V14.01,2017-03-26 05:11:00,
2017-03-26 00:16:00,53.5,53.0,29.74,West,262,0.0,0.0,98,0.01,,---,0.00,VWS V14.01,2017-03-26 05:16:00,
2017-03-26 00:21:00,53.5,53.0,29.74,West,281,0.0,0.0,98,0.01,,---,0.00,VWS V14.01,2017-03-26 05:21:00,
2017-03-26 00:26:00,53.5,53.0,29.74,West,260,0.0,0.0,98,0.01,,---,0.00,VWS V14.01,2017-03-26 05:26:00,
2017-03-26 00:31:00,53.3,52.8,29.74,WSW,240,0.0,5.0,98,0.01,,---,0.00,VWS V14.01,2017-03-26 05:31:00,
2017-03-26 00:36:00,53.1,52.5,29.74,SW,226,0.0,6.0,98,0.01,,---,0.00,VWS V14.01,2017-03-26 05:36:00,
2017-03-26 00:41:00,52.8,52.0,29.74,SSW,212,2.0,4.0,97,0.01,,---,0.00,VWS V14.01,2017-03-26 05:41:00,
2017-03-26 00:46:00,52.6,51.8,29.74,WSW,243,0.0,4.0,97,0.01,,---,0.00,VWS V14.01,2017-03-26 05:46:00,
2017-03-26 00:51:00,52.6,51.8,29.74,SW,224,0.0,0.0,97,0.00,,---,0.00,VWS V14.01,2017-03-26 05:51:00,
2017-03-26 00:56:00,52.6,51.8,29.74,SW,224,0.0,0.0,97,0.00,,---,0.00,VWS V14.01,2017-03-26 05:56:00,
2017-03-26 01:01:00,52.5,51.7,29.74,West,266,0.0,0.0,97,0.00,,---,0.00,VWS V14.01,2017-03-26 06:01:00,
2017-03-26 01:06:00,52.5,51.7,29.74,West,266,0.0,0.0,97,0.00,,---,0.00,VWS V14.01,2017-03-26 06:06:00,
2017-03-26 01:11:00,52.3,51.5,29.74,West,264,0.0,3.0,97,0.00,,---,0.00,VWS V14.01,2017-03-26 06:11:00,
2017-03-26 01:16:00,52.2,51.4,29.74,West,264,0.0,0.0,97,0.00,,---,0.00,VWS V14.01,2017-03-26 06:16:00,
2017-03-26 01:21:00,52.2,51.4,29.74,West,264,0.0,0.0,97,0.00,,---,0.00,VWS V14.01,2017-03-26 06:21:00,
2017-03-26 01:31:00,52.2,51.4,29.75,WSW,239,0.0,0.0,97,0.00,,---,0.00,VWS V14.01,2017-03-26 06:31:00,
2017-03-26 01:33:00,52.2,51.4,29.75,WSW,239,0.0,0.0,97,0.00,,---,0.00,VWS V14.01,2017-03-26 06:33:00,
2017-03-26 01:38:00,52.2,51.4,29.75,WSW,238,0.0,0.0,97,0.00,,---,0.00,VWS V14.01,2017-03-26 06:38:00,
2017-03-26 01:43:00,52.3,51.5,29.75,WSW,238,0.0,0.0,97,0.00,,---,0.00,VWS V14.01,2017-03-26 06:43:00,
2017-03-26 01:48:00,52.5,51.7,29.75,WSW,238,0.0,0.0,97,0.00,,---,0.00,VWS V14.01,2017-03-26 06:48:00,
2017-03-26 01:53:00,52.6,51.8,29.75,WSW,238,0.0,0.0,97,0.00,,---,0.00,VWS V14.01,2017-03-26 06:53:00,
2017-03-26 01:58:00,52.6,51.8,29.75,WSW,238,0.0,0.0,97,0.00,,---,0.00,VWS V14.01,2017-03-26 06:58:00,
2017-03-26 02:03:00,52.6,52.0,29.74,WSW,238,0.0,0.0,98,0.00,,---,0.00,VWS V14.01,2017-03-26 07:03:00,
2017-03-26 02:08:00,52.5,51.7,29.74,SW,231,0.0,0.0,97,0.00,,---,0.00,VWS V14.01,2017-03-26 07:08:00,
2017-03-26 02:13:00,52.5,51.7,29.74,WSW,240,0.0,0.0,97,0.00,,---,0.00,VWS V14.01,2017-03-26 07:13:00,
2017-03-26 02:17:00,52.3,51.5,29.74,WSW,240,0.0,0.0,97,0.00,,---,0.00,VWS V14.01,2017-03-26 07:17:00,
2017-03-26 02:22:00,52.3,51.5,29.74,WSW,243,0.0,0.0,97,0.00,,---,0.00,VWS V14.01,2017-03-26 07:22:00,
2017-03-26 02:27:00,52.3,51.5,29.74,WSW,237,0.0,0.0,97,0.00,,---,0.00,VWS V14.01,2017-03-26 07:27:00,
2017-03-26 02:32:00,52.2,51.4,29.74,SW,226,0.0,0.0,97,0.00,,---,0.00,VWS V14.01,2017-03-26 07:32:00,
2017-03-26 02:33:00,52.2,51.4,29.74,SW,226,0.0,0.0,97,0.00,,---,0.00,VWS V14.01,2017-03-26 07:33:00,
2017-03-26 02:38:00,52.2,51.4,29.74,SW,231,0.0,0.0,97,0.00,,---,0.00,VWS V14.01,2017-03-26 07:38:00,
2017-03-26 02:43:00,52.2,51.4,29.74,SW,219,0.0,0.0,97,0.00,,---,0.00,VWS V14.01,2017-03-26 07:43:00,
2017-03-26 02:48:00,52.0,51.2,29.74,West,262,0.0,0.0,97,0.00,,---,0.00,VWS V14.01,2017-03-26 07:48:00,
2017-03-26 02:53:00,52.0,51.2,29.74,SW,228,0.0,2.0,97,0.00,,---,0.00,VWS V14.01,2017-03-26 07:53:00,
2017-03-26 02:58:00,52.0,50.9,29.74,SSW,192,0.0,2.0,96,0.00,,---,0.00,VWS V14.01,2017-03-26 07:58:00,
2017-03-26 03:03:00,52.2,51.1,29.74,SW,220,0.0,0.0,96,0.00,,---,0.00,VWS V14.01,2017-03-26 08:03:00,
2017-03-26 03:08:00,52.2,51.1,29.74,West,271,0.0,0.0,96,0.00,,---,0.00,VWS V14.01,2017-03-26 08:08:00,
2017-03-26 03:13:00,52.0,50.9,29.74,West,266,0.0,0.0,96,0.00,,---,0.00,VWS V14.01,2017-03-26 08:13:00,
2017-03-26 03:18:00,52.0,50.9,29.74,SW,232,0.0,0.0,96,0.00,,---,0.00,VWS V14.01,2017-03-26 08:18:00,
2017-03-26 03:23:00,51.9,50.8,29.74,SW,228,0.0,0.0,96,0.00,,---,0.00,VWS V14.01,2017-03-26 08:23:00,
2017-03-26 03:28:00,51.7,50.6,29.74,WNW,296,0.0,4.0,96,0.00,,---,0.00,VWS V14.01,2017-03-26 08:28:00,
2017-03-26 03:33:00,51.7,50.6,29.74,WNW,296,0.0,0.0,96,0.00,,---,0.00,VWS V14.01,2017-03-26 08:33:00,
2017-03-26 03:38:00,51.6,50.5,29.74,WNW,296,0.0,0.0,96,0.00,,---,0.00,VWS V14.01,2017-03-26 08:38:00,
2017-03-26 03:43:00,51.6,50.5,29.74,West,278,0.0,0.0,96,0.00,,---,0.00,VWS V14.01,2017-03-26 08:43:00,
2017-03-26 03:48:00,51.6,50.5,29.73,WSW,242,0.0,5.0,96,0.00,,---,0.00,VWS V14.01,2017-03-26 08:48:00,
2017-03-26 03:53:00,51.4,50.3,29.73,WSW,242,0.0,0.0,96,0.00,,---,0.00,VWS V14.01,2017-03-26 08:53:00,
2017-03-26 03:58:00,51.3,50.2,29.73,SW,230,0.0,0.0,96,0.00,,---,0.00,VWS V14.01,2017-03-26 08:58:00,
2017-03-26 04:03:00,51.1,50.0,29.73,SW,230,0.0,0.0,96,0.00,,---,0.00,VWS V14.01,2017-03-26 09:03:00,
2017-03-26 04:08:00,51.0,49.9,29.73,SW,230,0.0,0.0,96,0.00,,---,0.00,VWS V14.01,2017-03-26 09:08:00,
2017-03-26 04:13:00,51.0,49.9,29.73,SW,230,0.0,0.0,96,0.00,,---,0.00,VWS V14.01,2017-03-26 09:13:00,
2017-03-26 04:18:00,51.0,49.9,29.73,SW,230,0.0,0.0,96,0.00,,---,0.00,VWS V14.01,2017-03-26 09:18:00,
2017-03-26 04:23:00,51.0,49.9,29.73,SW,230,0.0,0.0,96,0.00,,---,0.00,VWS V14.01,2017-03-26 09:23:00,
2017-03-26 04:28:00,50.8,49.7,29.73,SW,230,0.0,0.0,96,0.00,,---,0.00,VWS V14.01,2017-03-26 09:28:00,
2017-03-26 04:33:00,50.8,49.7,29.72,SW,230,0.0,0.0,96,0.00,,---,0.00,VWS V14.01,2017-03-26 09:33:00,
2017-03-26 04:38:00,50.8,49.7,29.72,SW,230,0.0,0.0,96,0.00,,---,0.00,VWS V14.01,2017-03-26 09:38:00,